This is the latest recevied weather packets stored in our database for station/object W0AKY-13. If no packets are shown the sender has not sent any weather packets the latest 10 day(s).
| Time | Temp. | Humidity | Pressure | Rain* | Wind** | Luminosity | Snow |
|---|---|---|---|---|---|---|---|
| 1777663603 | 15° C | 40% | 1019.7 hPa | 0 mm | - | 656 W/m² | - |
| 1777663300 | 15.56° C | 40% | 1019.8 hPa | 0 mm | - | 659 W/m² | - |
| 1777662998 | 15.56° C | 45% | 1019.7 hPa | 0 mm | - | 667 W/m² | - |
| 1777662386 | 15° C | 44% | 1019.9 hPa | 0 mm | - | 674 W/m² | - |
| 1777662081 | 15° C | 45% | 1019.7 hPa | 0 mm | - | 680 W/m² | - |
| 1777660561 | 15° C | 43% | 1019.7 hPa | 0 mm | - | 696 W/m² | - |
| 1777660258 | 15° C | 43% | 1019.7 hPa | 0 mm | - | 708 W/m² | - |
| 1777659954 | 15° C | 45% | 1019.8 hPa | 0 mm | - | 701 W/m² | - |
| 1777659651 | 14.44° C | 46% | 1019.7 hPa | 0 mm | - | 697 W/m² | - |
| 1777659045 | 14.44° C | 43% | 1019.9 hPa | 0 mm | - | 705 W/m² | - |
| 1777653588 | 13.89° C | 46% | 1020.1 hPa | 0 mm | - | 625 W/m² | - |
| 1777653284 | 13.89° C | 43% | 1019.8 hPa | 0 mm | - | 615 W/m² | - |
| 1777652678 | 13.33° C | 44% | 1019.8 hPa | 0 mm | - | 596 W/m² | - |
| 1777652072 | 13.33° C | 48% | 1019.9 hPa | 0 mm | - | 576 W/m² | - |
| 1777651465 | 13.33° C | 48% | 1019.5 hPa | 0 mm | - | 519 W/m² | - |
| 1777650254 | 12.22° C | 51% | 1019.6 hPa | 0 mm | - | 505 W/m² | - |
| 1777649951 | 12.22° C | 49% | 1019.7 hPa | 0 mm | - | 491 W/m² | - |
| 1777649649 | 12.22° C | 50% | 1019.6 hPa | 0 mm | - | 478 W/m² | - |
| 1777649344 | 12.78° C | 54% | 1019.6 hPa | 0 mm | - | 465 W/m² | - |
| 1777649041 | 12.22° C | 55% | 1019.7 hPa | 0 mm | - | 451 W/m² | - |
| 1777648739 | 11.67° C | 56% | 1019.7 hPa | 0 mm | - | 438 W/m² | - |
| 1777648435 | 11.67° C | 56% | 1019.5 hPa | 0 mm | - | 424 W/m² | - |
| 1777648131 | 11.67° C | 57% | 1019.7 hPa | 0 mm | - | 410 W/m² | - |
| 1777647827 | 11.67° C | 59% | 1019.5 hPa | 0 mm | - | 397 W/m² | - |
| 1777646918 | 11.11° C | 59% | 1019.6 hPa | 0 mm | - | 358 W/m² | - |
* Rain latest hour (hover to see other rain measurements)
** Current wind speed in m/s (hover to see current wind gust speed)